Location: eljas
(40.1958°N, 6.8661°W)
Time: 15:36:19
(UTC+01:00)

ISS - All Passes

Search period start: 23 January 2017 00:00
Search period end: 02 February 2017 00:00
Orbit: 399 x 410 km, 51.6° (Epoch: 23 January)

Date Brightness Start Highest point End Pass type
(mag) Time Alt. Az. Time Alt. Az. Time Alt. Az.
23 Jan - 00:35:13 10° WNW 00:37:26 17° NNW 00:39:40 10° NNE night (unlit)
23 Jan - 02:13:54 10° NNW 02:14:58 11° N 02:16:02 10° NNE night (unlit)
23 Jan - 03:49:51 10° NNW 03:52:24 21° NNE 03:54:57 10° ENE night (unlit)
23 Jan - 05:25:55 10° WNW 05:29:08 64° SW 05:32:20 10° SE night (unlit)
23 Jan - 22:05:11 10° SW 22:08:21 51° SE 22:11:32 10° ENE night (unlit)
23 Jan - 23:42:19 10° W 23:44:59 23° NNW 23:47:41 10° NNE night (unlit)
24 Jan - 01:21:15 10° NNW 01:22:24 11° N 01:23:31 10° NNE night (unlit)
24 Jan - 02:57:52 10° NNW 02:59:57 16° NNE 03:02:01 10° NE night (unlit)
24 Jan - 04:33:41 10° NW 04:36:56 65° NE 04:40:08 10° ESE night (unlit)
24 Jan - 06:11:28 10° W 06:13:00 13° SW 06:14:34 10° SSW night (unlit)
24 Jan - 21:13:28 10° SSW 21:16:14 26° SE 21:19:00 10° ENE visible
24 Jan - 22:49:34 10° W 22:52:37 35° NNW 22:55:39 10° NE night (unlit)
25 Jan - 00:28:17 10° NW 00:29:50 13° N 00:31:22 10° NNE night (unlit)
25 Jan - 02:05:51 10° NNW 02:07:24 13° N 02:08:59 10° NE night (unlit)
25 Jan - 03:41:34 10° NW 03:44:37 36° NNE 03:47:39 10° E night (unlit)
25 Jan - 05:18:16 10° WNW 05:20:59 24° SW 05:23:40 10° S night (unlit)
25 Jan - 20:22:28 10° SSE 20:24:11 14° SE 20:25:53 10° E visible
25 Jan - 21:57:03 10° WSW 22:00:18 62° NW 22:03:31 10° NE night (unlit)
25 Jan - 23:35:14 10° NW 23:37:17 15° NNW 23:39:20 10° NNE night (unlit)
26 Jan - 01:13:41 10° NNW 01:14:50 11° N 01:15:59 10° NNE night (unlit)
26 Jan - 02:49:30 10° NNW 02:52:13 23° NNE 02:54:55 10° E night (unlit)
26 Jan - 04:25:42 10° WNW 04:28:51 49° SW 04:31:59 10° SE night (unlit)
26 Jan - 21:04:48 10° SW 21:08:02 67° SE 21:11:16 10° ENE visible
26 Jan - 22:42:14 10° WNW 22:44:47 20° NNW 22:47:19 10° NNE night (unlit)
27 Jan - 00:21:09 10° NNW 00:22:13 11° N 00:23:17 10° NNE night (unlit)
27 Jan - 01:57:29 10° NNW 01:59:44 17° NNE 02:01:59 10° ENE night (unlit)
27 Jan - 03:33:22 10° NW 03:36:38 82° NE 03:39:51 10° SE night (unlit)
27 Jan - 20:12:53 10° SSW 20:15:51 32° SE 20:18:49 10° ENE visible
27 Jan - 21:49:24 10° W 21:52:20 30° NNW 21:55:16 10° NE visible
27 Jan - 23:28:13 10° NNW 23:29:37 12° N 23:31:00 10° NNE night (unlit)
28 Jan - 01:05:26 10° NNW 01:07:11 14° NNE 01:08:56 10° NE night (unlit)
28 Jan - 02:41:10 10° NW 02:44:19 43° NNE 02:47:25 10° ESE night (unlit)
28 Jan - 04:18:09 10° W 04:20:34 19° SW 04:22:59 10° S night (unlit)
28 Jan - 19:21:31 10° S 19:23:44 17° SE 19:25:57 10° E visible
28 Jan - 20:56:45 10° WSW 20:59:57 50° NNW 21:03:08 10° NE visible
28 Jan - 22:35:08 10° NW 22:37:01 14° NNW 22:38:54 10° NNE night (unlit)
29 Jan - 00:13:17 10° NNW 00:14:35 12° N 00:15:52 10° NNE night (unlit)
29 Jan - 01:49:04 10° NW 01:51:54 27° NNE 01:54:44 10° E night (unlit)
29 Jan - 03:25:24 10° WNW 03:28:26 38° SW 03:31:28 10° SSE night (unlit)
29 Jan - 20:04:21 10° SW 20:07:37 85° SE 20:10:54 10° NE visible
29 Jan - 21:42:04 10° WNW 21:44:27 18° NNW 21:46:50 10° NNE visible
29 Jan - 23:20:53 10° NNW 23:21:56 11° N 23:22:59 10° NNE night (unlit)
30 Jan - 00:56:59 10° NNW 00:59:25 19° NNE 01:01:50 10° ENE night (unlit)
30 Jan - 02:32:58 10° NW 02:36:12 79° SW 02:39:26 10° SE night (unlit)
30 Jan - 19:12:16 10° SSW 19:15:22 41° SE 19:18:28 10° ENE visible
30 Jan - 20:49:07 10° W 20:51:56 26° NNW 20:54:45 10° NNE visible
30 Jan - 22:28:01 10° NNW 22:29:17 12° N 22:30:32 10° NNE night (unlit)
31 Jan - 00:04:54 10° NNW 00:06:50 15° NNE 00:08:46 10° NE night (unlit)
31 Jan - 01:40:41 10° NW 01:43:53 53° NNE 01:47:04 10° ESE night (unlit)
31 Jan - 03:18:01 10° W 03:20:03 16° SW 03:22:04 10° S night (unlit)
31 Jan - 18:20:37 10° S 18:23:11 21° SE 18:25:45 10° E daylight
31 Jan - 19:56:22 10° WSW 19:59:29 41° NNW 20:02:36 10° NE visible
31 Jan - 21:34:55 10° NW 21:36:38 13° NNW 21:38:20 10° NNE visible
31 Jan - 23:12:46 10° NNW 23:14:12 12° N 23:15:38 10° NE night (unlit)
01 Feb - 00:48:30 10° NW 00:51:28 31° NNE 00:54:25 10° E night (unlit)
01 Feb - 02:25:01 10° WNW 02:27:54 30° SW 02:30:47 10° SSE night (unlit)
01 Feb - 17:30:04 10° SSE 17:31:04 11° SE 17:32:03 10° ESE daylight
01 Feb - 19:03:49 10° WSW 19:07:06 76° NW 19:10:22 10° NE daylight
01 Feb - 20:41:47 10° WNW 20:44:01 17° NNW 20:46:14 10° NNE visible
01 Feb - 22:20:25 10° NNW 22:21:32 11° N 22:22:38 10° NNE night (unlit)
